Airport Information

KMFR - Rogue Valley Intl Medford Airport

KMFR 020953Z AUTO 00000KT 10SM OVC040 02/M01 A3019 RMK AO2 SLP227 T00171006


  • General Information

  • Coordinates: N 42°22'27"/ W 122°52'24"
  • Location: N/A
  • Surveyed Elevation: 1335 MSL

Operations

Flow Name Active Runways Conditions

Green background denotes normal operations.


Common Frequencies

Callsign Frequency Position Name

More at the Document Center


Charts